Home > Weather > Managua > Past weeks

Flag for Nicaragua Weather for the Past 2 Weeks in Managua, Nicaragua

Now
82 °F

Partly sunny.


Feels Like: 88 °F
Forecast: 79 / 91 °F
Wind: 5 mph from East

Location: Managua A. C. Sandino

Current Time: Apr 30, 2016 at 9:56:43 AM

Latest Report: Apr 30, 2016 at 9:00 AM


Visibility: 5 mi

Pressure: 29.80 "Hg

Humidity: 74%

Dew Point: 73 °F

Location of ManaguaLocation

Historic Weather in Managua — Graph

°F

Managua Temperature Yesterday

Maximum temperature yesterday: 95 °F (at 1:00 PM)
Minimum temperature yesterday: 81 °F (at 3:00 AM)
Average temperature yesterday: 87 °F

High & Low Weather Summary for the Past Weeks

 TemperatureHumidityPressure
High100 °F (Apr 24, 3:00 PM)94% (Apr 27, 6:00 AM)29.92 "Hg (Apr 27, 6:00 AM)
Low75 °F (Apr 16, 4:00 AM)30% (Apr 15, 1:00 PM)29.65 "Hg (Apr 25, 4:00 PM)
Average88 °F59%29.79 "Hg
* Reported Apr 15 8:00 AM — Apr 30 8:00 AM, Managua, Weather by CustomWeather, © 2016

Note: Actual official high and low records may vary slightly from our data, if they occured in-between our weather recording intervals... More about our weather records

Advertising

Managua Weather History for the Previous 24 Hours

Scroll right to see more
 ConditionsComfort  
Time TempWeatherWind HumidityBarometerVisibility
8:00 AM
Sat, Apr 30
81 °FPartly sunny.5 mph89%29.80 "Hg4 mi
7:00 AM79 °FDrizzle. Partly sunny.No wind94%29.80 "Hg4 mi
6:00 AM79 °FPartly sunny.No wind94%29.77 "Hg5 mi
5:00 AM79 °FPartly cloudy.No wind94%29.77 "Hg6 mi
4:00 AM79 °FPassing clouds.5 mph94%29.74 "HgN/A
12:00 AM84 °FPassing clouds.7 mph74%29.77 "HgN/A
11:00 PM
Fri, Apr 29
84 °FPassing clouds.9 mph79%29.77 "HgN/A
10:00 PM84 °FPassing clouds.9 mph79%29.77 "HgN/A
9:00 PM86 °FPassing clouds.9 mph75%29.77 "HgN/A
8:00 PM86 °FPassing clouds.12 mph70%29.74 "HgN/A
6:00 PM90 °FPassing clouds.9 mph67%29.71 "HgN/A
5:00 PM91 °FScattered clouds.9 mph63%29.68 "HgN/A
4:00 PM95 °FScattered clouds.9 mph53%29.68 "HgN/A
3:00 PM95 °FScattered clouds.5 mph44%29.71 "HgN/A
2:00 PM95 °FScattered clouds.5 mph47%29.74 "HgN/A
1:00 PM95 °FScattered clouds.12 mph47%29.77 "HgN/A
12:00 PM93 °FScattered clouds.14 mph49%29.80 "HgN/A
11:00 AM91 °FScattered clouds.12 mph52%29.83 "HgN/A
10:00 AM90 °FScattered clouds.12 mph59%29.86 "HgN/A
9:00 AM88 °FScattered clouds.12 mph62%29.86 "HgN/A
Weather by CustomWeather, © 2016

See weather overviewHow to use our weather pages